Location: *
(12.5665°N, 8.3471°E)
Time: 18:42:23
(UTC+00:00)

Cosmos 1536 - Pass Details

Date: 23 September 2019
Orbit: 541 x 559 km, 82.5° (Epoch: 19 October)

Event Time Altitude Azimuth Distance (km) Brightness Sun altitude
Rises 03:26:43 0° 1° (N) 2,690 6.4 -27.4°
Enters shadow 03:28:18 - 4° (N) 2,036 5.8 -27.0°
Exits shadow 03:34:25 32° 152° (SSE) 943 4.1 -25.5°
Drops below altitude 10° 03:36:42 10° 166° (SSE) 1,808 5.5 -25.0°
Sets 03:38:53 0° 169° (S) 2,703 6.4 -24.4°
